Overview Statistics Trail Chart Weather Telemetry Raw packets
 

This is the latest recevied weather packets stored in our database for station/object WA6ODQ-13. If no packets are shown the sender has not sent any weather packets the latest 10 day(s).

<< 96 97 98 99 100 101 102 >>
Time Temp. Humidity Pressure Rain* Wind** Luminosity Snow
1787949425 22.78° C 56% 1013.4 hPa 0 mm - 200 W/m² -
1787949120 22.78° C 56% 1013.5 hPa 0 mm - 210 W/m² -
1787948823 22.78° C 57% 1013.5 hPa 0 mm - 208 W/m² -
1787948515 22.78° C 58% 1013.2 hPa 0 mm - 234 W/m² -
1787948211 22.78° C 60% 1013.4 hPa 0 mm - 267 W/m² -
1787947909 22.78° C 60% 1013.5 hPa 0 mm - 261 W/m² -
1787947605 22.78° C 58% 1013.4 hPa 0 mm - 245 W/m² -
1787947298 22.78° C 58% 1013.4 hPa 0 mm - 242 W/m² -
1787946998 22.78° C 58% 1013.5 hPa 0 mm - 245 W/m² -
1787946691 22.78° C 58% 1013.4 hPa 0 mm - 228 W/m² -
1787946385 22.78° C 57% 1013.4 hPa 0 mm - 208 W/m² -
1787946086 22.22° C 58% 1013.4 hPa 0 mm - 171 W/m² -
1787945775 22.78° C 58% 1013.4 hPa 0 mm - 157 W/m² -
1787945469 22.22° C 58% 1013.3 hPa 0 mm - 142 W/m² -
1787945165 22.22° C 59% 1013.5 hPa 0 mm - 147 W/m² -
1787944863 22.22° C 58% 1013.4 hPa 0 mm - 146 W/m² -
1787944557 22.22° C 59% 1013.5 hPa 0 mm - 193 W/m² -
1787944254 22.22° C 60% 1013.2 hPa 0 mm - 214 W/m² -
1787943953 22.22° C 61% 1013.3 hPa 0 mm - 227 W/m² -
1787943649 21.67° C 62% 1013.4 hPa 0 mm - 245 W/m² -
1787943348 21.67° C 62% 1013.3 hPa 0 mm - 249 W/m² -
1787943044 21.11° C 64% 1013.5 hPa 0 mm - 261 W/m² -
1787942744 20.56° C 66% 1013.6 hPa 0 mm - 234 W/m² -
1787942438 20.56° C 66% 1013.4 hPa 0 mm - 249 W/m² -
1787942133 20° C 68% 1013.5 hPa 0 mm - 208 W/m² -

* Rain latest hour (hover to see other rain measurements)
** Current wind speed in m/s (hover to see current wind gust speed)